Probability
0 0 0 0 0 0 0 0 0 0 0 3 3 6 13 13 13 13 13 13 16 13 6 3 0 0 0 3 0 0 3 0 0 0 0 0 0 0 0 0 0 0 0 0
0 0 0 0 0 0 0 0 0 0 0 3 0 10 23 13 10 10 16 10 10 3 3 0 0 0 0 0 3 3 3 3 0 0 0 0 0 0 0 0 0 0 0 0
0 0 0 0 0 0 0 0 0 0 0 3 10 16 23 13 10 6 6 6 3 3 3 3 0 0 0 0 0 0 3 3 0 0 0 0 0 0 0 0 0 0 0 0
0 0 0 0 0 0 0 0 0 0 0 0 3 13 16 13 6 6 10 6 3 3 6 6 0 0 0 0 0 0 3 0 0 0 0 0 0 0 0 0 0 0 0 0
0 0 0 0 0 0 0 0 0 0 0 0 6 6 10 10 3 10 13 10 10 3 3 3 3 0 0 0 0 0 3 0 0 0 0 0 0 0 0 0 0 0 0 0
0 0 0 0 0 0 0 0 0 0 3 3 6 0 10 16 10 10 10 10 3 3 3 3 3 0 0 0 0 0 0 0 0 0 0 0 0 0 0 0 0 0 0 0
0 0 0 0 0 0 0 0 10 6 10 19 6 6 16 13 10 10 10 6 3 3 3 3 0 0 0 0 0 0 0 0 0 0 0 0 0 0 0 0 0 0 0 0
0 0 0 0 0 0 3 10 13 10 19 19 13 10 13 10 10 10 3 3 3 3 3 3 0 0 0 0 0 0 0 0 0 0 0 0 0 0 0 0 0 0 0 0
0 0 6 3 3 3 6 3 10 10 13 16 16 10 6 10 6 0 0 3 3 3 3 0 0 0 0 0 0 0 0 0 0 0 0 0 0 0 0 0 0 0 0 0
0 0 3 3 3 3 3 3 3 6 13 16 10 3 6 6 3 0 0 0 0 0 0 0 0 0 0 0 0 0 0 0 0 0 0 0 0 0 0 0 0 0 0 0
3 0 3 3 0 0 0 0 0 3 3 6 0 3 3 0 3 0 0 0 0 0 0 0 0 0 0 0 0 0 0 0 0 0 0 0 0 0 0 0 0 0 0 0
0 3 6 3 0 0 0 3 3 3 3 3 0 3 0 0 10 3 3 0 0 0 0 0 0 0 0 0 0 0 0 0 0 0 0 0 0 0 0 0 0 0 0 0
6 3 3 3 0 0 3 6 3 3 3 0 0 0 0 3 10 3 3 0 0 0 0 0 0 0 0 0 0 0 0 0 0 0 0 0 0 0 0 0 0 0 0 0
3 6 6 6 3 3 6 3 3 3 0 0 0 0 0 3 10 6 3 3 0 0 0 0 0 0 0 0 0 0 0 0 0 0 0 0 0 0 0 0 0 0 0 0
3 6 6 6 6 6 6 3 3 3 0 0 0 0 0 6 10 6 3 3 3 0 0 0 0 0 0 0 0 0 0 0 0 0 0 0 0 0 0 0 0 0 0 0
3 3 6 3 6 6 10 6 3 0 0 0 0 3 3 6 0 3 3 3 3 3 0 0 0 0 0 0 0 0 0 0 0 0 0 0 0 0 0 0 0 0 0 0
3 3 3 3 10 6 10 6 3 0 0 0 3 3 3 0 0 0 3 3 3 3 3 0 0 0 0 0 0 0 0 0 0 0 0 0 0 0 0 0 0 0 0 0
3 6 3 3 3 6 6 0 0 0 0 3 3 3 0 0 0 0 3 3 3 3 3 3 0 0 0 0 0 0 0 0 0 0 0 0 0 0 0 0 0 0 0 0
0 0 0 3 3 3 0 0 0 0 0 0 0 0 0 0 0 0 3 3 3 3 3 3 0 0 0 0 0 0 0 0 0 0 0 0 0 0 0 0 0 0 0 0
0 0 3 3 3 0 0 0 0 0 0 0 0 0 0 0 0 0 0 3 3 3 3 3 0 0 0 0 0 0 0 0 0 0 0 0 0 0 0 0 0 0 0 0
0 0 3 3 3 0 0 0 0 0 0 0 0 0 0 0 0 0 3 0 6 3 3 0 3 0 0 0 0 0 0 0 0 0 0 0 0 0 0 0 0 0 0 0
0 0 0 3 0 0 0 3 0 0 0 0 0 0 0 3 0 0 3 3 0 0 3 0 0 0 0 0 0 0 0 0 0 0 0 0 0 0 0 0 0 0 0 0
0 0 3 3 0 3 3 3 0 0 0 0 0 0 0 0 0 0 0 3 0 0 0 0 0 0 0 0 0 0 0 0 0 0 0 0 0 0 0 0 0 0 0 0
0 3 3 0 0 3 3 3 3 0 0 0 0 0 0 0 0 0 0 0 0 0 0 0 0 0 0 0 0 0 0 0 0 0 0 0 0 0 0 0 0 0 0 0
0 0 0 0 3 3 3 3 3 3 0 0 0 0 0 0 0 0 0 0 0 0 0 0 0 0 0 0 0 0 0 0 0 0 0 0 0 0 0 0 0 0 0 0
0 0 3 3 3 3 0 0 0 0 0 0 0 0 0 0 0 0 0 0 0 0 0 0 0 0 0 0 0 0 0 0 0 0 0 0 0 0 0 0 0 0 0 0
0 0 3 0 0 0 0 0 0 0 0 0 0 0 0 0 0 0 0 0 0 0 0 0 0 0 0 0 0 0 0 0 0 0 0 0 0 0 0 0 0 0 0 0
Height
5824 5823 5823 5822 5821 5820 5819 5819 5818 5817 5815 5813 5810 5808 5806 5804 5802 5800 5797 5794 5792 5789 5787 5785 5783 5780 5778 5776 5774 5772 5769 5767 5765 5763 5761 5759 5757 5755 5752 5750 5747 5745 5742 5739
5819 5818 5817 5817 5816 5816 5814 5813 5812 5811 5810 5808 5805 5803 5801 5799 5797 5795 5792 5790 5787 5785 5782 5780 5778 5776 5774 5772 5770 5768 5766 5764 5762 5760 5758 5756 5754 5752 5749 5747 5744 5742 5740 5737
5814 5814 5813 5812 5812 5811 5810 5809 5808 5806 5806 5803 5801 5799 5797 5795 5792 5790 5788 5785 5783 5780 5778 5776 5774 5772 5771 5769 5768 5766 5764 5762 5759 5757 5756 5753 5751 5749 5747 5744 5742 5740 5738 5735
5808 5809 5808 5810 5807 5806 5805 5804 5803 5801 5800 5798 5796 5794 5792 5790 5788 5786 5783 5781 5779 5776 5774 5772 5771 5769 5768 5766 5765 5763 5761 5759 5757 5755 5753 5751 5749 5747 5745 5742 5740 5738 5736 5734
5804 5803 5803 5804 5802 5801 5800 5799 5798 5797 5795 5794 5792 5790 5788 5786 5784 5782 5779 5777 5775 5772 5770 5769 5768 5766 5765 5764 5762 5761 5759 5757 5755 5754 5752 5750 5747 5745 5743 5741 5739 5737 5735 5733
5798 5798 5798 5800 5798 5797 5797 5795 5794 5792 5791 5790 5788 5787 5785 5783 5780 5778 5776 5774 5771 5769 5767 5766 5765 5764 5763 5762 5760 5759 5757 5756 5754 5752 5750 5748 5746 5744 5742 5740 5738 5736 5734 5732
5793 5793 5793 5794 5793 5793 5793 5792 5790 5789 5787 5786 5785 5784 5782 5780 5777 5775 5773 5771 5769 5767 5765 5764 5763 5762 5761 5760 5759 5757 5756 5754 5753 5751 5749 5747 5745 5743 5741 5739 5737 5735 5733 5731
5788 5789 5792 5790 5789 5789 5789 5787 5786 5785 5784 5783 5782 5780 5778 5777 5775 5773 5771 5769 5767 5766 5764 5763 5761 5760 5759 5758 5757 5756 5755 5753 5752 5750 5748 5746 5744 5742 5740 5738 5736 5734 5732 5730
5785 5787 5786 5785 5785 5784 5784 5783 5783 5782 5781 5780 5779 5777 5776 5774 5772 5771 5769 5767 5766 5764 5763 5761 5760 5759 5758 5757 5756 5755 5754 5752 5751 5749 5747 5746 5744 5742 5740 5738 5736 5734 5732 5729
5779 5781 5781 5781 5781 5781 5781 5780 5780 5779 5778 5777 5776 5775 5773 5772 5770 5769 5767 5766 5764 5763 5761 5760 5759 5758 5757 5756 5755 5754 5753 5751 5750 5749 5747 5745 5744 5742 5740 5738 5736 5734 5732 5729
5775 5777 5777 5777 5777 5777 5778 5777 5777 5776 5775 5774 5773 5772 5771 5770 5769 5767 5766 5764 5763 5762 5760 5759 5759 5758 5757 5756 5755 5753 5752 5751 5750 5748 5747 5745 5744 5742 5740 5738 5736 5734 5732 5730
5771 5772 5773 5774 5774 5774 5774 5774 5774 5774 5773 5772 5771 5770 5769 5769 5767 5766 5765 5763 5762 5761 5760 5759 5758 5757 5757 5756 5755 5753 5752 5751 5750 5748 5747 5746 5744 5742 5740 5739 5737 5735 5732 5730
5766 5767 5768 5770 5770 5771 5771 5772 5772 5771 5771 5770 5769 5769 5768 5767 5766 5765 5764 5763 5762 5761 5760 5759 5758 5758 5757 5756 5755 5754 5752 5751 5750 5748 5747 5745 5744 5742 5741 5739 5737 5735 5733 5731
5761 5762 5764 5766 5767 5768 5768 5769 5769 5769 5769 5769 5768 5768 5767 5766 5766 5765 5764 5763 5762 5761 5761 5760 5759 5758 5757 5756 5755 5754 5753 5751 5750 5748 5747 5745 5744 5742 5740 5738 5736 5735 5733 5731
5756 5758 5760 5762 5764 5765 5766 5767 5767 5768 5768 5768 5767 5767 5766 5766 5766 5765 5764 5764 5763 5762 5761 5761 5759 5758 5757 5756 5755 5754 5753 5751 5750 5749 5747 5745 5743 5742 5740 5738 5736 5734 5732 5730
5751 5753 5756 5758 5760 5762 5763 5765 5766 5766 5767 5767 5767 5767 5767 5766 5766 5765 5765 5764 5764 5763 5762 5761 5760 5759 5758 5757 5756 5754 5753 5751 5750 5749 5747 5745 5743 5741 5740 5738 5736 5734 5732 5730
5746 5749 5752 5754 5757 5759 5761 5762 5764 5765 5766 5766 5767 5767 5767 5766 5766 5766 5765 5765 5764 5763 5763 5762 5761 5760 5759 5757 5756 5755 5753 5752 5750 5748 5746 5745 5743 5741 5739 5737 5735 5733 5731 5729
5741 5744 5747 5751 5753 5756 5758 5760 5762 5763 5764 5765 5766 5766 5766 5766 5766 5766 5766 5765 5764 5764 5763 5762 5761 5760 5759 5758 5756 5755 5753 5752 5750 5748 5746 5744 5742 5740 5738 5736 5734 5732 5729 5727
5737 5741 5744 5747 5750 5753 5755 5758 5760 5761 5763 5764 5765 5765 5766 5766 5766 5766 5766 5765 5765 5764 5763 5762 5761 5760 5759 5758 5756 5755 5753 5751 5750 5748 5746 5744 5742 5740 5737 5735 5732 5730 5727 5725
5734 5737 5741 5744 5747 5750 5753 5756 5758 5760 5761 5763 5764 5765 5765 5766 5766 5766 5765 5765 5765 5764 5763 5762 5761 5760 5759 5758 5756 5755 5753 5751 5749 5747 5745 5743 5741 5738 5736 5733 5731 5728 5725 5723
5731 5735 5738 5741 5744 5748 5751 5753 5756 5758 5760 5761 5762 5764 5764 5765 5765 5765 5765 5765 5765 5764 5763 5762 5761 5760 5759 5758 5756 5754 5752 5750 5748 5746 5744 5742 5739 5737 5734 5731 5729 5726 5723 5720
5729 5732 5735 5739 5742 5745 5748 5751 5754 5756 5758 5760 5761 5762 5763 5764 5764 5764 5764 5764 5764 5763 5762 5761 5760 5760 5758 5757 5755 5753 5751 5750 5747 5745 5743 5740 5737 5735 5732 5729 5726 5724 5721 5718
5726 5730 5733 5736 5740 5743 5746 5749 5752 5754 5756 5758 5760 5761 5762 5763 5763 5763 5763 5763 5762 5762 5761 5760 5759 5758 5757 5755 5754 5752 5750 5748 5746 5743 5741 5738 5735 5732 5729 5726 5723 5720 5717 5714
5724 5728 5731 5734 5737 5740 5744 5747 5750 5752 5754 5756 5758 5759 5760 5761 5761 5761 5761 5761 5761 5760 5759 5759 5758 5756 5755 5754 5752 5750 5748 5746 5743 5741 5738 5735 5732 5729 5726 5723 5720 5716 5713 5710
5722 5726 5729 5732 5735 5738 5742 5745 5747 5750 5752 5754 5756 5757 5758 5759 5759 5760 5760 5759 5759 5758 5758 5757 5756 5755 5753 5751 5750 5748 5745 5743 5740 5737 5735 5732 5728 5725 5722 5719 5715 5711 5708 5704
5720 5724 5727 5731 5734 5737 5740 5742 5745 5747 5750 5752 5753 5754 5755 5756 5757 5757 5757 5757 5757 5756 5756 5755 5753 5752 5750 5749 5747 5745 5742 5740 5737 5734 5731 5728 5724 5721 5718 5714 5710 5706 5702 5697
5719 5722 5725 5729 5732 5735 5738 5740 5743 5745 5747 5749 5751 5752 5753 5754 5754 5755 5755 5754 5754 5754 5753 5752 5750 5749 5747 5745 5743 5741 5738 5736 5733 5730 5727 5723 5720 5716 5712 5708 5704 5700 5695 5690
Wind_Speed
16 16 17 16 16 17 18 18 18 18 19 19 20 20 19 19 19 19 19 19 19 18 18 18 18 18 17 17 16 15 15 14 14 14 14 14 14 14 14 14 14 14 14 14
18 17 17 17 17 17 18 17 18 18 18 18 19 18 18 18 17 17 18 18 18 17 16 16 16 15 14 14 13 12 12 12 12 12 12 12 12 13 12 12 12 12 12 12
18 18 18 18 17 17 17 17 17 18 17 17 17 16 16 16 16 17 17 16 16 16 15 14 13 13 12 12 11 11 11 11 11 11 10 11 11 11 11 11 11 11 11 11
18 18 19 17 17 17 16 16 17 17 16 16 15 14 15 15 16 16 15 15 14 14 13 11 11 10 10 10 9 10 10 10 10 10 10 10 10 10 10 10 10 10 9 10
18 18 18 17 17 16 16 15 16 15 14 14 13 13 13 14 14 14 13 13 12 11 11 10 10 9 10 9 9 9 9 9 9 9 9 9 9 10 10 10 9 9 9 9
18 18 17 16 15 14 15 14 14 12 12 12 12 12 13 13 12 12 12 11 11 10 10 9 9 8 8 7 7 7 8 8 7 7 8 9 9 9 9 9 9 8 8 8
16 16 16 14 13 12 12 12 10 10 10 10 11 11 11 11 11 11 11 10 9 8 8 7 7 6 6 6 6 6 6 7 7 7 8 9 9 9 9 9 8 8 8 8
16 16 15 12 11 11 11 10 9 9 9 9 9 9 9 10 10 9 9 8 7 7 6 6 6 5 5 4 5 5 6 7 7 7 7 8 8 8 8 8 9 8 8 8
16 15 13 12 11 10 10 9 9 8 8 7 8 8 8 8 8 8 8 7 7 6 6 5 5 4 4 4 4 4 5 6 6 6 6 7 7 8 8 8 9 9 9 8
16 14 12 11 10 9 8 7 7 7 7 6 7 6 6 6 7 7 7 6 6 5 4 4 4 3 4 4 3 4 4 5 5 6 6 6 6 7 8 8 9 9 9 9
16 14 13 11 10 8 8 7 6 6 6 6 5 5 5 5 5 6 6 5 5 4 4 4 3 3 3 4 4 4 4 4 5 5 5 5 6 7 8 9 9 9 9 8
16 14 13 11 9 8 7 6 5 4 4 4 4 4 4 4 4 5 5 5 5 4 4 3 3 2 3 4 4 4 4 5 5 5 5 5 5 6 7 8 8 8 8 8
16 15 13 11 10 8 7 6 5 4 3 3 3 3 3 3 3 3 4 5 5 5 5 4 4 3 3 3 5 5 5 5 6 6 5 6 6 6 7 8 8 8 8 8
17 15 13 11 10 9 8 6 5 3 3 2 2 2 2 2 3 3 4 4 5 5 5 5 5 4 4 4 5 5 5 5 6 6 6 6 6 7 7 7 8 8 8 8
17 15 13 12 11 9 8 6 5 3 2 2 1 0 1 2 2 3 4 4 5 5 5 5 6 5 5 5 5 6 6 6 5 6 7 7 7 7 8 8 8 8 9 9
17 15 14 13 11 10 8 7 5 4 3 2 2 1 1 2 2 3 4 4 5 5 4 5 5 6 6 6 6 6 6 7 7 7 7 8 8 8 8 8 9 9 9 10
17 16 15 14 12 11 10 8 7 6 4 3 3 2 2 2 2 3 3 4 4 4 5 5 5 5 5 6 6 6 7 7 7 8 8 8 8 8 9 9 10 10 10 11
17 16 16 14 13 12 11 10 8 7 6 5 4 3 2 1 1 2 2 3 3 3 4 4 5 5 5 6 6 7 7 7 8 8 8 8 8 9 10 10 11 11 11 11
18 17 16 15 15 14 12 10 9 8 7 6 5 4 3 2 0 1 1 2 2 3 3 4 4 5 5 6 6 7 7 8 8 8 9 9 9 10 11 11 12 12 13 13
17 17 17 16 14 14 13 12 10 9 8 6 5 5 3 2 1 1 1 2 2 3 3 4 4 5 5 6 6 7 8 8 8 9 10 10 11 12 12 13 13 13 14 14
17 17 16 15 15 14 14 13 11 9 8 7 6 5 4 2 1 1 1 1 2 3 3 4 4 5 5 5 6 7 8 9 9 10 11 12 12 13 13 14 14 14 14 15
18 17 15 15 15 14 14 13 12 10 9 8 7 6 4 3 2 2 2 2 2 3 4 4 5 5 6 6 7 8 9 10 11 12 12 13 14 14 15 15 15 16 16 16
19 17 16 15 15 14 14 13 12 11 9 8 7 6 5 4 3 3 3 3 3 4 5 5 6 6 7 8 9 9 10 11 12 13 14 15 15 16 16 17 17 17 18 18
19 18 17 16 15 14 14 13 12 11 10 9 8 7 6 5 4 4 4 4 5 5 6 6 7 7 8 9 9 11 12 13 14 15 16 16 17 17 18 19 19 20 21 22
19 18 17 16 15 14 14 13 12 11 11 10 9 8 7 6 5 5 5 5 6 6 6 7 8 8 9 10 11 12 13 15 16 17 17 17 18 19 20 21 22 23 23 24
19 16 16 16 15 14 14 13 12 11 11 10 10 9 8 7 6 6 6 6 6 7 8 8 9 10 11 12 13 14 15 17 18 18 19 19 20 21 22 23 24 25 26 27
19 17 17 16 14 13 13 12 11 11 10 10 10 9 8 8 7 7 7 7 8 9 10 10 11 12 13 14 15 16 17 18 19 19 20 21 22 23 24 25 26 27 28 28
Wind_Direction
269 272 275 277 278 278 277 278 279 281 284 289 290 291 292 293 294 295 298 300 302 300 297 295 295 295 296 296 296 293 295 295 296 298 299 303 305 306 308 308 310 311 313 315
271 274 276 276 278 280 279 280 282 284 286 289 291 291 292 294 294 295 298 301 302 302 300 298 296 297 298 299 301 301 304 304 305 302 301 305 308 308 311 314 316 316 317 324
270 274 275 277 278 280 279 280 284 286 289 291 292 292 294 295 294 297 299 299 300 302 302 299 299 299 297 299 301 303 309 310 306 307 308 310 312 317 321 321 321 321 322 329
269 272 274 278 279 280 280 281 284 286 288 289 292 295 298 299 299 300 301 301 301 301 302 300 302 301 299 302 304 307 309 313 313 311 312 313 318 320 324 325 320 322 323 325
268 272 276 279 280 281 281 282 284 287 288 288 292 296 300 302 304 304 306 307 306 304 301 300 302 301 299 300 306 311 312 314 318 317 318 323 325 324 323 323 323 326 325 327
266 270 276 280 279 279 282 284 285 289 290 290 293 297 301 306 308 310 311 312 311 309 305 302 300 299 298 300 305 311 314 317 318 322 324 329 332 330 329 331 331 328 329 333
265 270 275 277 278 279 283 285 288 292 295 295 293 296 303 307 309 311 312 315 317 316 314 313 308 302 303 302 306 313 318 321 322 323 325 332 335 336 337 338 339 338 337 334
261 267 272 275 277 279 280 280 284 291 298 299 297 299 306 310 312 315 317 321 325 323 324 325 321 312 308 309 312 318 328 330 330 330 335 343 348 350 350 348 347 345 343 341
256 261 265 268 272 274 276 274 280 288 295 298 302 302 306 312 315 318 322 322 323 324 327 332 332 328 319 321 322 325 334 340 343 341 341 345 350 354 355 356 358 358 353 347
250 255 258 263 268 270 272 273 277 284 293 302 306 306 308 316 321 324 326 327 329 333 335 337 336 338 337 331 333 335 338 347 353 354 354 357 1 3 3 2 0 1 358 354
249 250 254 257 260 263 263 265 271 280 295 301 306 311 319 326 334 340 340 340 344 348 347 348 354 357 356 355 350 346 346 351 356 355 358 1 6 6 6 7 6 5 3 6
243 245 249 250 249 254 257 257 263 275 294 305 305 309 324 331 338 351 357 357 1 9 12 16 14 12 10 14 10 6 3 356 0 10 10 4 2 2 1 2 3 4 8 9
236 238 240 239 239 243 247 241 244 265 289 307 307 322 333 336 345 4 19 23 28 33 37 38 33 21 11 15 12 8 7 2 4 6 4 1 360 357 355 356 358 359 360 359
230 232 234 232 231 232 230 226 230 247 270 287 286 311 340 1 20 32 33 36 38 43 45 40 33 31 30 32 23 15 6 3 8 11 6 359 355 355 354 351 351 353 355 355
226 226 226 223 220 217 218 215 211 217 225 228 240 287 37 42 42 43 41 43 44 47 45 38 34 40 41 36 30 22 16 12 4 1 0 359 357 355 353 351 351 353 354 353
220 220 218 216 211 206 206 205 202 199 196 194 187 157 104 77 67 58 54 49 46 47 46 42 40 42 41 34 29 25 23 21 14 2 358 359 358 356 354 353 351 347 345 343
215 214 214 213 207 204 204 205 203 200 202 200 188 173 145 114 84 62 52 47 49 50 50 46 41 36 29 24 22 21 23 20 14 8 3 359 356 354 352 349 346 344 341 338
209 208 207 206 202 203 204 203 200 203 205 202 196 190 180 156 96 52 40 39 41 44 44 40 33 26 21 16 18 19 17 12 8 5 1 357 354 350 346 343 341 338 335 332
208 206 203 199 199 202 200 198 199 201 203 199 194 195 195 192 213 16 26 29 30 27 26 25 24 20 17 17 19 16 11 7 4 1 357 352 348 344 341 337 335 334 332 330
207 205 201 198 198 197 197 199 198 198 199 198 199 204 207 213 233 278 341 9 18 10 4 4 5 2 2 6 8 8 5 2 359 356 352 347 343 341 339 337 337 335 333 331
201 202 200 199 196 195 197 199 199 198 199 200 201 205 208 208 222 264 299 337 356 355 352 354 351 349 352 354 354 354 353 352 349 347 344 341 338 338 337 336 335 333 332 331
195 196 196 196 196 197 198 198 199 199 198 200 202 205 208 213 230 254 278 305 327 336 340 342 341 340 340 340 340 340 340 339 338 338 337 336 335 334 333 332 331 330 328 327
190 192 193 194 195 195 196 198 200 201 203 204 206 210 216 224 240 261 276 289 305 321 329 332 332 331 330 331 331 332 333 332 332 332 332 332 331 330 329 328 326 325 324 323
186 189 191 192 193 193 195 198 201 204 207 209 213 218 225 235 248 264 276 284 294 308 319 326 328 327 327 329 328 329 329 329 328 328 328 328 327 327 326 325 324 323 321 320
187 189 189 189 190 193 196 200 204 208 211 213 217 223 229 240 253 265 275 282 290 300 311 319 322 322 323 325 326 325 325 326 326 326 326 326 325 325 325 324 323 321 319 318
187 186 186 187 190 194 197 201 206 210 214 216 221 227 234 244 255 264 272 282 290 296 304 312 318 319 321 322 323 323 322 322 323 324 324 324 325 325 324 323 322 321 320 318
190 189 187 188 190 194 198 201 205 209 213 216 221 228 236 246 256 264 272 281 291 297 302 307 311 314 315 317 318 320 320 321 322 322 323 323 324 324 324 323 322 321 320 318